Regional Weather Roundup
Issued by NWS

Home | Current Version | Previous Version | Text Only | Print | Product List | Glossary Off
Versions: 1 2 3 4 5 6 7 8 9 10 11 12 13 14 15 16 17 18 19 20 21 22 23 24 25 26 27

000
ASUS43 KDMX 302007
RWRIA

WEATHER ROUNDUP FOR IOWA
NATIONAL WEATHER SERVICE DES MOINES IA
300 PM CDT THU OCT 30 2014

NOTE: "FAIR" INDICATES FEW OR NO CLOUDS BELOW 12,000 FEET WITH NO
SIGNIFICANT WEATHER AND/OR OBSTRUCTIONS TO VISIBILITY.

* - THESE STATIONS ARE NOT NWS STATIONS...THUS NOT UNDER NWS
QUALITY CONTROL.  THEY ALSO DO NOT REPORT WEATHER SUCH
AS PRECIPITATION OR FOG.

IAZ001>003-012>014-020>022-031>034-043>046-302100-
   NORTHWEST IOWA

CITY           SKY/WX    TMP DP  RH WIND       PRES   REMARKS
CARROLL *      SUNNY     59  37  44 N20       30.03R
CHEROKEE *     SUNNY     59  37  44 N18G24    30.07R
DENISON *      SUNNY     61  39  44 NW18G29   30.03S
LE MARS *      CLOUDY    57  41  54 NW18G26   30.11R
ORANGE CITY *  PTSUNNY   59  36  41 N18G24    30.09R
SHELDON *      CLOUDY    57  37  47 N15G24    30.09R
SIOUX CITY     MOSUNNY   57  40  52 NW24G31   30.10R
SPENCER        SUNNY     58  37  45 N18       30.07R
STORM LAKE *   SUNNY     57  36  44 N16G24    30.06S
$$

IAZ055>058-069>071-079>083-090>094-302100-
   SOUTHWEST IOWA

CITY           SKY/WX    TMP DP  RH WIND       PRES   REMARKS
ATLANTIC *     SUNNY     61  37  41 NW23      30.03R
AUDUBON *      SUNNY     61  32  33 NW16G22   30.04S
CLARINDA *     SUNNY     64  37  36 NW22      30.04S
COUNCIL BLFS * MOSUNNY   63  43  48 N18G29    30.05S
CRESTON *      SUNNY     59  39  47 NW18      30.01R
HARLAN  *      SUNNY     61  39  44 N25G33    30.07S
LAMONI         SUNNY     63  43  48 NW12      29.99S
RED OAK *      SUNNY     63  37  39 N22G30    30.04S
SHENANDOAH *   SUNNY     64  43  45 N16G29    30.05S HAZE
$$

IAZ047>049-059>061-072>074-084-302100-
   CENTRAL IOWA

CITY           SKY/WX    TMP DP  RH WIND       PRES   REMARKS
AMES           SUNNY     60  38  43 N5        30.01S
ANKENY *       SUNNY     59  39  47 NW7       30.01R
CHARITON *     SUNNY     61  41  48 N10       29.99S
DES MOINES     MOSUNNY   63  39  41 NE6       30.00F
GRINNELL*      CLOUDY    59  36  41 NE3       30.01S
KNOXVILLE *    PTSUNNY   59  37  44 NW5       29.98S
MARSHALLTOWN   PTSUNNY   58  35  42 CALM      30.01S
PELLA *        MOSUNNY   61  39  44 N5        30.01S
PERRY *          N/A     61  36  39 NW8       30.02R
$$

IAZ004>006-015-016-023>025-035-036-302100-
   NORTH CENTRAL IOWA

CITY           SKY/WX    TMP DP  RH WIND       PRES   REMARKS
ALGONA *       SUNNY     55  37  50 NE12      30.05S
CLARION *      SUNNY     57  37  47 VRB6G12   30.03S
ESTHERVILLE    MOSUNNY   56  35  45 N21G28    30.06S
FORT DODGE *   SUNNY     55  37  50 N7        30.04S
MASON CITY     CLOUDY    53  38  56 N7        30.06S
FOREST CITY *  CLOUDY    52  39  62 NE3       30.05S
IOWA FALLS *     N/A     59  36  41 N3        30.03S
$$

IAZ007>011-017>019-026>030-037>042-050>054-066-302100-
   NORTHEAST IOWA

CITY           SKY/WX    TMP DP  RH WIND       PRES   REMARKS
CEDAR RAPIDS   CLOUDY    54  37  52 E7        30.02F
CHARLES CITY * CLOUDY    50  37  62 CALM      30.05F
CLINTON *      PTSUNNY   52  36  54 S7        30.08S
DECORAH *      CLOUDY    46  39  76 CALM      30.05F
DUBUQUE        CLOUDY    49  37  63 W3        30.05F
MONTICELLO *   PTSUNNY   52  37  58 CALM      30.04S
OELWEIN *      CLOUDY    52  36  54 CALM      30.05S
WATERLOO       CLOUDY    55  37  50 NE3       30.03F
$$

IAZ064-065-067-068-078-302100-
   EAST CENTRAL IOWA

CITY           SKY/WX    TMP DP  RH WIND       PRES   REMARKS
DAVENPORT      PTSUNNY   51  37  58 SE5       30.04F
IOWA CITY      SUNNY     56  37  49 E7        30.04S
MT. PLEASANT * SUNNY     59  39  47 S6        30.00S
MUSCATINE *    SUNNY     55  37  50 SE6       30.03S
QUAD CITIES    CLOUDY    50  38  63 SE7       30.04F
$$

IAZ062-063-075>077-085>089-095>099-302100-
   SOUTHEAST IOWA

CITY           SKY/WX    TMP DP  RH WIND       PRES   REMARKS
BURLINGTON     MOSUNNY   55  40  56 SE8       30.00F
FAIRFIELD *    PTSUNNY   59  39  47 VRB7      29.99F
FORT MADISON * SUNNY     59  43  55 SE6       30.00S
KEOKUK *       SUNNY     59  43  55 VRB7      29.98F
OSKALOOSA *    CLOUDY    59  37  44 NE6       30.00R
CENTERVILLE *  SUNNY     63  41  45 N7        29.99S
OTTUMWA        CLOUDY    61  39  44 N6        29.99S
WASHINGTON *   SUNNY     57  37  47 VRB5G14   30.01S
$$

ABBREVIATIONS USED IN REMARKS
   TC - TEMPERATURES IN CELSIUS
  WCI - WIND CHILL INDEX
   HX - HEAT INDEX
  VSB - VISIBILITY
$$




USA.gov is the U.S. government's official web portal to all federal, state and local government web resources and services.